When you browse on this site, cookies collect data to enhance your experience and personalize the content and advertising you see.
Visit our Privacy Policy to learn more. By continuing to use the site, you agree to this use of cookies and data.
  • In Czech Republic
  • List of Countries
  • For 7 days
  • Water Temperature
  • Satellite Maps
  • Weather Map
  • Weather Widgets
  • user-avatar
    Login

    Hourly Weather Almansa

    Today, 17 January, Thursday

    Time Temperature Precipitation Wind Pressure Humidity
    00:00 +3°C° 0 mm 5 mps 701 mmHg 84%
    01:00 +2°C° 0 mm 5 mps 701 mmHg 85%
    02:00 +2°C° 0 mm 5 mps 701 mmHg 86%
    03:00 +2°C° 0 mm 5 mps 700 mmHg 88%
    04:00 +2°C° 0 mm 5 mps 700 mmHg 88%
    05:00 +1°C° 0 mm 4 mps 700 mmHg 89%
    06:00 +1°C° 0 mm 4 mps 700 mmHg 91%
    07:00 +1°C° 0 mm 4 mps 701 mmHg 87%
    08:00 +3°C° 0 mm 4 mps 701 mmHg 83%
    09:00 +4°C° 0 mm 4 mps 701 mmHg 79%
    10:00 +5°C° 0 mm 4 mps 701 mmHg 71%
    11:00 +7°C° 0 mm 4 mps 701 mmHg 63%
    12:00 +8°C° 0 mm 4 mps 701 mmHg 54%
    13:00 +9°C° 0 mm 3 mps 701 mmHg 53%
    14:00 +10°C° 0 mm 3 mps 701 mmHg 51%
    15:00 +10°C° 0 mm 2 mps 701 mmHg 49%
    16:00 +9°C° 0 mm 2 mps 701 mmHg 55%
    17:00 +8°C° 0 mm 1 mps 701 mmHg 61%
    18:00 +6°C° 0 mm 1 mps 701 mmHg 68%
    19:00 +6°C° 0 mm 1 mps 701 mmHg 70%
    20:00 +5°C° 0 mm 1 mps 701 mmHg 72%
    21:00 +5°C° 0 mm 1 mps 701 mmHg 74%
    22:00 +5°C° 0 mm 1 mps 702 mmHg 72%
    23:00 +5°C° 0 mm 1 mps 702 mmHg 69%

    Tomorrow, 18 January, Friday

    Time Temperature Precipitation Wind Pressure Humidity
    00:00 +4°C° 0 mm 2 mps 702 mmHg 67%
    01:00 +4°C° 0 mm 1 mps 702 mmHg 69%
    02:00 +3°C° 0 mm 1 mps 702 mmHg 70%
    03:00 +3°C° 0 mm 1 mps 702 mmHg 72%
    04:00 +2°C° 0 mm 1 mps 701 mmHg 73%
    05:00 +2°C° 0 mm 1 mps 701 mmHg 75%
    06:00 +1°C° 0 mm 1 mps 701 mmHg 76%
    07:00 +2°C° 0 mm 1 mps 702 mmHg 70%
    08:00 +4°C° 0 mm 1 mps 702 mmHg 64%
    09:00 +4°C° 0 mm 2 mps 702 mmHg 57%
    10:00 +5°C° 0 mm 2 mps 703 mmHg 51%
    11:00 +7°C° 0 mm 3 mps 703 mmHg 44%
    12:00 +7°C° 0 mm 4 mps 703 mmHg 38%
    13:00 +8°C° 0 mm 4 mps 703 mmHg 37%
    14:00 +8°C° 0 mm 5 mps 702 mmHg 36%
    15:00 +8°C° 0 mm 6 mps 702 mmHg 35%
    16:00 +7°C° 0 mm 5 mps 702 mmHg 38%
    17:00 +6°C° 0 mm 5 mps 702 mmHg 42%
    18:00 +5°C° 0 mm 5 mps 702 mmHg 46%
    19:00 +3°C° 0 mm 5 mps 702 mmHg 52%
    20:00 +3°C° 0 mm 5 mps 702 mmHg 57%
    21:00 +2°C° 0 mm 5 mps 702 mmHg 63%
    22:00 +2°C° 0 mm 5 mps 702 mmHg 66%
    23:00 +1°C° 0 mm 5 mps 702 mmHg 68%

    Day after tomorrow, 19 January, Saturday

    Time Temperature Precipitation Wind Pressure Humidity
    00:00 +1°C° 0 mm 4 mps 702 mmHg 70%
    01:00 +1°C° 0 mm 4 mps 702 mmHg 74%
    02:00 +1°C° 0 mm 5 mps 701 mmHg 77%
    03:00 0°C° 0 mm 5 mps 701 mmHg 80%
    04:00 0°C° 0 mm 5 mps 701 mmHg 81%
    05:00 0°C° 0 mm 5 mps 701 mmHg 82%
    06:00 0°C° 0 mm 5 mps 701 mmHg 83%
    07:00 +1°C° 0 mm 5 mps 701 mmHg 76%
    08:00 +2°C° 0 mm 6 mps 701 mmHg 70%
    09:00 +3°C° 0 mm 6 mps 702 mmHg 64%
    10:00 +5°C° 0 mm 7 mps 702 mmHg 59%
    11:00 +6°C° 0 mm 7 mps 701 mmHg 54%
    12:00 +8°C° 0 mm 7 mps 701 mmHg 49%
    13:00 +8°C° 0.1 mm 7 mps 701 mmHg 53%
    14:00 +8°C° 0.1 mm 7 mps 700 mmHg 57%
    15:00 +8°C° 0.1 mm 7 mps 700 mmHg 61%
    16:00 +8°C° 0.1 mm 6 mps 699 mmHg 67%
    17:00 +7°C° 0.1 mm 6 mps 699 mmHg 74%
    18:00 +6°C° 0.1 mm 5 mps 699 mmHg 80%
    19:00 +6°C° 0.4 mm 5 mps 698 mmHg 81%
    20:00 +6°C° 0.4 mm 5 mps 698 mmHg 83%
    21:00 +5°C° 0.4 mm 6 mps 698 mmHg 84%
    22:00 +5°C° 0.1 mm 6 mps 698 mmHg 84%
    23:00 +5°C° 0.1 mm 6 mps 697 mmHg 84%

    20 January, Sunday

    Time Temperature Precipitation Wind Pressure Humidity
    00:00 +6°C° 0.1 mm 5 mps 697 mmHg 83%
    01:00 +5°C° 0 mm 6 mps 697 mmHg 85%
    02:00 +5°C° 0 mm 7 mps 697 mmHg 87%
    03:00 +5°C° 0 mm 7 mps 696 mmHg 88%
    04:00 +5°C° 0 mm 7 mps 697 mmHg 89%
    05:00 +5°C° 0 mm 7 mps 697 mmHg 90%
    06:00 +5°C° 0 mm 7 mps 697 mmHg 91%
    07:00 +7°C° 0.2 mm 6 mps 697 mmHg 90%
    08:00 +7°C° 0.2 mm 6 mps 698 mmHg 89%
    09:00 +7°C° 0.2 mm 6 mps 698 mmHg 89%
    10:00 +8°C° 0.1 mm 5 mps 699 mmHg 80%
    11:00 +8°C° 0.1 mm 5 mps 699 mmHg 72%
    12:00 +10°C° 0.1 mm 4 mps 700 mmHg 63%
    13:00 +9°C° 0 mm 5 mps 700 mmHg 60%
    14:00 +9°C° 0 mm 5 mps 700 mmHg 57%
    15:00 +9°C° 0 mm 5 mps 700 mmHg 54%
    16:00 +8°C° 0 mm 4 mps 700 mmHg 60%
    17:00 +6°C° 0 mm 4 mps 701 mmHg 65%
    18:00 +5°C° 0 mm 4 mps 701 mmHg 71%
    19:00 +4°C° 0 mm 3 mps 702 mmHg 72%
    20:00 +4°C° 0 mm 3 mps 702 mmHg 74%
    21:00 +3°C° 0 mm 3 mps 703 mmHg 75%
    22:00 +3°C° 0 mm 3 mps 703 mmHg 76%
    23:00 +2°C° 0 mm 3 mps 703 mmHg 77%

    21 January, Monday

    Time Temperature Precipitation Wind Pressure Humidity
    00:00 +2°C° 0 mm 3 mps 703 mmHg 79%
    01:00 +1°C° 0 mm 3 mps 703 mmHg 80%
    02:00 +1°C° 0 mm 3 mps 703 mmHg 81%
    03:00 +1°C° 0 mm 3 mps 703 mmHg 82%
    04:00 +1°C° 0 mm 3 mps 703 mmHg 82%
    05:00 0°C° 0 mm 3 mps 704 mmHg 83%
    06:00 0°C° 0 mm 3 mps 704 mmHg 84%
    07:00 0°C° 0 mm 4 mps 704 mmHg 79%
    08:00 +1°C° 0 mm 4 mps 705 mmHg 74%
    09:00 +2°C° 0 mm 5 mps 705 mmHg 69%
    10:00 +5°C° 0 mm 5 mps 705 mmHg 61%
    11:00 +6°C° 0 mm 5 mps 705 mmHg 53%
    12:00 +8°C° 0 mm 6 mps 705 mmHg 45%
    13:00 +8°C° 0 mm 6 mps 705 mmHg 44%
    14:00 +8°C° 0 mm 6 mps 705 mmHg 42%
    15:00 +9°C° 0 mm 6 mps 704 mmHg 40%
    16:00 +7°C° 0 mm 6 mps 704 mmHg 45%
    17:00 +6°C° 0 mm 5 mps 705 mmHg 51%
    18:00 +3°C° 0 mm 5 mps 705 mmHg 56%
    19:00 +3°C° 0 mm 5 mps 705 mmHg 59%
    20:00 +2°C° 0 mm 5 mps 705 mmHg 61%
    21:00 +1°C° 0 mm 4 mps 705 mmHg 64%
    22:00 +1°C° 0 mm 5 mps 705 mmHg 66%
    23:00 0°C° 0 mm 5 mps 705 mmHg 68%

    22 January, Tuesday

    Time Temperature Precipitation Wind Pressure Humidity
    00:00 0°C° 0 mm 5 mps 704 mmHg 70%
    01:00 -1°C° 0 mm 6 mps 704 mmHg 72%
    02:00 -1°C° 0 mm 6 mps 704 mmHg 73%
    03:00 -2°C° 0 mm 6 mps 703 mmHg 75%
    04:00 -2°C° 0 mm 6 mps 703 mmHg 77%
    05:00 -2°C° 0 mm 6 mps 702 mmHg 78%
    06:00 -2°C° 0 mm 6 mps 702 mmHg 80%
    07:00 -1°C° 0 mm 8 mps 701 mmHg 74%
    08:00 +1°C° 0 mm 9 mps 701 mmHg 68%
    09:00 +2°C° 0 mm 11 mps 701 mmHg 62%
    10:00 +3°C° 0 mm 11 mps 700 mmHg 57%
    11:00 +4°C° 0 mm 12 mps 699 mmHg 53%
    12:00 +5°C° 0 mm 13 mps 699 mmHg 49%
    13:00 +4°C° 0.2 mm 13 mps 698 mmHg 53%
    14:00 +4°C° 0.2 mm 13 mps 697 mmHg 58%
    15:00 +3°C° 0.2 mm 13 mps 696 mmHg 63%
    16:00 +3°C° 0.2 mm 12 mps 695 mmHg 67%
    17:00 +2°C° 0.2 mm 11 mps 695 mmHg 72%
    18:00 +2°C° 0.2 mm 10 mps 695 mmHg 77%
    19:00 +1°C° 0 mm 9 mps 695 mmHg 75%
    20:00 0°C° 0 mm 7 mps 695 mmHg 73%
    21:00 +1°C° 0 mm 6 mps 696 mmHg 71%
    22:00 -1°C° 0 mm 7 mps 695 mmHg 70%
    23:00 -1°C° 0 mm 8 mps 695 mmHg 68%
    Show more